This is the latest recevied weather packets stored in our database for station/object KF5WCW-1. If no packets are shown the sender has not sent any weather packets the latest 10 day(s).
| Time | Temp. | Humidity | Pressure | Rain* | Wind** | Luminosity | Snow |
|---|---|---|---|---|---|---|---|
| 1777607779 | 0.56° C | 96% | 0 hPa | 0.76 mm | - | - | - |
| 1777607479 | 1.11° C | 96% | 0 hPa | 0.51 mm | - | - | - |
| 1777607179 | 1.11° C | 96% | 0 hPa | 0.76 mm | - | - | - |
| 1777606879 | 1.11° C | 96% | 0 hPa | 0.51 mm | - | - | - |
| 1777606579 | 1.11° C | 96% | 0 hPa | 0.51 mm | - | - | - |
| 1777606279 | 1.11° C | 96% | 0 hPa | 0.51 mm | - | - | - |
| 1777605980 | 1.11° C | 95% | 0 hPa | 0.51 mm | - | - | - |
| 1777605679 | 1.11° C | 95% | 0 hPa | 0.51 mm | - | - | - |
| 1777605380 | 1.11° C | 95% | 0 hPa | 0.51 mm | - | - | - |
| 1777605079 | 1.67° C | 95% | 0 hPa | 0.51 mm | - | - | - |
| 1777604779 | 1.67° C | 94% | 0 hPa | 0.51 mm | - | - | - |
| 1777604479 | 1.67° C | 93% | 0 hPa | 0.51 mm | - | - | - |
| 1777604179 | 1.67° C | 92% | 0 hPa | 0.51 mm | - | - | - |
| 1777603879 | 1.67° C | 92% | 0 hPa | 0.51 mm | - | - | - |
| 1777603579 | 1.67° C | 92% | 0 hPa | 0.25 mm | - | - | - |
| 1777603279 | 1.67° C | 92% | 0 hPa | 0.25 mm | - | - | - |
| 1777602979 | 1.67° C | 91% | 0 hPa | 0.51 mm | - | - | - |
| 1777602679 | 2.22° C | 90% | 0 hPa | 0.51 mm | - | - | - |
| 1777602380 | 2.22° C | 89% | 0 hPa | 0.25 mm | - | - | - |
| 1777602080 | 2.78° C | 89% | 0 hPa | 0.25 mm | - | - | - |
| 1777601780 | 2.78° C | 92% | 0 hPa | 0.25 mm | - | - | - |
| 1777601480 | 2.78° C | 92% | 0 hPa | 0.25 mm | - | - | - |
| 1777601180 | 2.22° C | 88% | 0 hPa | 0.25 mm | - | - | - |
| 1777600879 | 2.22° C | 90% | 0 hPa | 0.25 mm | - | - | - |
| 1777600580 | 2.22° C | 91% | 0 hPa | 0.25 mm | - | - | - |
* Rain latest hour (hover to see other rain measurements)
** Current wind speed in m/s (hover to see current wind gust speed)